TimeMDT,TemperatureF,Dew PointF,Humidity,Sea Level PressureIn,VisibilityMPH,Wind Direction,Wind SpeedMPH,Gust SpeedMPH,PrecipitationIn,Events,Conditions,WindDirDegrees,DateUTC
12:53 AM,43.0,32.0,65,30.10,10.0,SE,9.2,-,N/A,,Overcast,130,2012-10-12 06:53:00
1:53 AM,41.0,30.9,67,30.09,10.0,ESE,4.6,-,N/A,,Mostly Cloudy,120,2012-10-12 07:53:00
2:53 AM,41.0,32.0,70,30.06,10.0,West,10.4,-,N/A,,Mostly Cloudy,260,2012-10-12 08:53:00
3:53 AM,37.9,30.9,76,30.04,10.0,West,9.2,-,N/A,,Mostly Cloudy,270,2012-10-12 09:53:00
4:53 AM,36.0,30.0,79,30.06,10.0,WNW,9.2,-,N/A,,Scattered Clouds,290,2012-10-12 10:53:00
5:53 AM,34.0,28.9,82,30.08,10.0,West,11.5,-,N/A,,Scattered Clouds,270,2012-10-12 11:53:00
6:53 AM,34.0,28.9,82,30.09,10.0,WSW,10.4,-,N/A,,Mostly Cloudy,250,2012-10-12 12:53:00
7:53 AM,35.1,28.9,78,30.10,10.0,West,9.2,-,N/A,,Mostly Cloudy,260,2012-10-12 13:53:00
8:53 AM,39.0,30.0,70,30.09,10.0,WSW,5.8,-,N/A,,Mostly Cloudy,240,2012-10-12 14:53:00
9:53 AM,42.8,30.2,61,30.10,10.0,NNW,4.6,-,N/A,,Mostly Cloudy,340,2012-10-12 15:53:00
10:53 AM,46.9,30.9,54,30.01,10.0,Calm,Calm,-,N/A,,Mostly Cloudy,0,2012-10-12 16:53:00
11:53 AM,50.0,33.1,52,29.99,10.0,ENE,8.1,-,N/A,,Mostly Cloudy,70,2012-10-12 17:53:00
12:53 PM,52.0,33.1,49,29.97,10.0,Calm,Calm,-,N/A,,Overcast,0,2012-10-12 18:53:00
1:53 PM,57.2,35.6,44,29.99,10.0,SSW,8.1,-,N/A,,Mostly Cloudy,200,2012-10-12 19:53:00
2:53 PM,63.0,37.9,40,29.81,10.0,NW,9.2,-,N/A,,Mostly Cloudy,310,2012-10-12 20:53:00
3:53 PM,64.4,39.2,40,29.91,10.0,NW,4.6,-,N/A,,Mostly Cloudy,320,2012-10-12 21:53:00
4:53 PM,62.1,39.0,43,29.79,10.0,ENE,5.8,-,N/A,,Mostly Cloudy,60,2012-10-12 22:53:00
4:59 PM,62.6,39.2,42,29.90,10.0,ENE,5.8,-,N/A,Thunderstorm,Thunderstorm,60,2012-10-12 22:59:00
5:09 PM,62.6,41.0,45,29.93,7.0,SW,36.8,46.0,0.00,Rain-Thunderstorm,Light Thunderstorms and Rain,220,2012-10-12 23:09:00
5:17 PM,57.2,46.4,67,29.94,5.0,SW,29.9,46.0,0.00,Rain-Thunderstorm,Light Thunderstorms and Rain,230,2012-10-12 23:17:00
5:23 PM,55.4,48.2,77,29.94,4.0,WSW,17.3,43.7,0.00,Rain-Thunderstorm,Thunderstorms and Rain,240,2012-10-12 23:23:00
5:34 PM,53.6,50.0,88,29.93,7.0,SSW,8.1,25.3,0.02,Rain-Thunderstorm,Light Thunderstorms and Rain,200,2012-10-12 23:34:00
5:44 PM,55.4,50.0,82,29.92,10.0,South,10.4,-,0.02,,Mostly Cloudy,190,2012-10-12 23:44:00
5:53 PM,55.0,48.9,80,29.85,10.0,SSW,10.4,-,0.02,,Mostly Cloudy,210,2012-10-12 23:53:00
6:53 PM,52.0,45.0,77,29.86,10.0,South,9.2,-,0.00,,Mostly Cloudy,180,2012-10-13 00:53:00
7:53 PM,53.6,44.6,72,29.92,10.0,WNW,5.8,-,N/A,,Mostly Cloudy,290,2012-10-13 01:53:00
8:53 PM,50.0,43.0,77,29.84,10.0,Calm,Calm,-,N/A,,Mostly Cloudy,0,2012-10-13 02:53:00
9:53 PM,50.0,43.0,77,29.86,10.0,WSW,5.8,-,N/A,,Mostly Cloudy,250,2012-10-13 03:53:00
10:53 PM,46.9,39.0,74,29.84,10.0,WSW,6.9,-,N/A,,Scattered Clouds,250,2012-10-13 04:53:00
11:53 PM,45.0,37.9,76,29.81,10.0,SW,6.9,-,N/A,,Partly Cloudy,230,2012-10-13 05:53:00